Regional Weather Roundup
Issued by NWS Burlington, VT

Home | Current Version | Previous Version | Text Only | Print | Product List | Glossary On
Versions: 1 2 3 4 5 6 7 8 9 10 11 12 13 14 15 16 17 18 19 20 21 22 23 24 25 26 27 28 29 30 31 32 33 34 35 36 37 38 39 40 41 42 43 44 45 46 47 48 49 50
000
ASUS41 KBTV 031910
RWRBTV
VERMONT REGIONAL WEATHER ROUNDUP
NATIONAL WEATHER SERVICE BURLINGTON VT
300 PM EDT THU SEP 03 2015

NOTE: "FAIR" INDICATES FEW OR NO CLOUDS BELOW 12,000 FEET WITH NO
SIGNIFICANT WEATHER AND/OR OBSTRUCTIONS TO VISIBILITY.

* THESE REPORTS ARE NOT UNDER NWS QUALITY CONTROL AND/OR DO NOT
  REPORT WEATHER SUCH AS PRECIPITATION AND FOG.

VTZ001>019-032000-
_____VERMONT_____


CITY           SKY/WX    TMP DP  RH WIND       PRES   REMARKS
BURLINGTON     PTSUNNY   82  67  60 N13       29.90F
MONTPELIER     CLOUDY    78  65  63 VRB6      29.95F
MORRISVILLE    PTSUNNY   83  66  56 VRB7      29.92F
ST. JOHNSBURY*   N/A     81  65  58 MISG      29.88F
LYNDONVILLE*   FAIR      80  64  58 NW7       29.94S
MIDDLEBURY*    FAIR      84  65  53 N12G17    29.89S
RUTLAND*       SUNNY     82 N/A N/A NW8       29.89R
SPRINGFIELD    LGT RAIN  81  71  71 CALM      29.88S
HIGHGATE*      FAIR      80  65  61 NW7       29.92S
NEWPORT*       FAIR      77  64  63 N10G17    29.94S
BENNINGTON     MOSUNNY   85  67  54 NW6       29.88S

_____LAKE CHAMPLAIN_____


CITY           SKY/WX    TMP DP  RH WIND       PRES   REMARKS

$$

NYZ007-026>031-035-052-083-032000-
_____NORTHERN NEW YORK_____


CITY           SKY/WX    TMP DP  RH WIND       PRES   REMARKS
PLATTSBURGH    MOSUNNY   79  68  69 NE13      29.91F
SARANAC LAKE   PTSUNNY   80  60  50 NE10      29.95S
MASSENA        MOSUNNY   82  66  58 NE5       29.93F
OGDENSBURG*    MOSUNNY   82  68  61 CALM      29.93F
POTSDAM*       MOSUNNY   81  72  74 NE5       29.94S
WATERTOWN      MOSUNNY   84  69  60 NE10      29.92F HAZE
FT DRUM        MOSUNNY   78  70  74 NE9       29.93F
ALBANY         PTSUNNY   89  69  51 N5        29.86S THUNDER HX  93
GLENS FALLS    PTSUNNY   85  67  54 NE3       29.86S

$$
NHZ002-005-011-032000-
_____NEW HAMPSHIRE_____


CITY           SKY/WX    TMP DP  RH WIND       PRES   REMARKS
LEBANON        MOSUNNY   85  68  56 MISG      29.86F
KEENE          SUNNY     88  63  42 N7        29.85F
MT WASHINGTON  PTSUNNY   57  54  88 NW14        N/A
PLYMOUTH       FAIR      85  66  52 CALM      29.86F
WHITEFIELD     PTSUNNY   79  69  71 VRB3      29.91F

$$

_____REGIONAL QUEBEC LOCATIONS_____


CITY           SKY/WX    TMP DP  RH WIND       PRES   REMARKS
MONTREAL       CLOUDY    81  63  54 N6        29.92F
QUEBEC CITY    MOSUNNY   79  52  38 CALM      29.91F
SHERBROOKE     SUNNY     79  54  41 NW10      29.92S

_____REGIONAL ONTARIO LOCATIONS_____


CITY           SKY/WX    TMP DP  RH WIND       PRES   REMARKS
OTTAWA         PTSUNNY   82  64  54 NE8       29.94S

______KEY______
VSB  - VISIBILITY IN MILES
WCI  - WIND CHILL INDEX
HX   - HEAT INDEX
$$
NNNN



USA.gov is the U.S. government's official web portal to all federal, state and local government web resources and services.